Location: Newark
(50.4348°N, 30.5552°E)
Time: 20:55:41
(UTC+00:00)

Envisat - Pass Details

Date: 10 December 2019
Orbit: 764 x 766 km, 98.1° (Epoch: 28 January)

Event Time Altitude Azimuth Distance (km) Brightness Sun altitude
Rises 04:37:15 0° 16° (NNE) 3,247 6.2 -10.4°
Reaches altitude 10° 04:39:36 10° 21° (NNE) 2,316 5.5 -10.0°
Maximum altitude 04:44:39 59° 101° (E) 884 3.7 -9.3°
Drops below altitude 10° 04:49:39 10° 181° (S) 2,298 5.8 -8.6°
Sets 04:51:59 0° 185° (S) 3,219 6.5 -8.3°
